DW1920 Weather Reports


time (UTC)temp
F
wind
direction
speed
knots
gust
knots
rain 1hr
in
rain 24hr
in
rain mn
in
humidity
%
barometer
mb
20260905020002 67 332 4.3 9.6 0.00 0.04 0.04 88 1006.3
20260905015003 67 334 5.2 8.7 0.00 0.04 0.04 90 1006.0
20260905014003 67 326 4.3 7.8 0.00 0.04 0.04 90 1006.4
20260905013003 67 333 3.5 5.2 0.00 0.04 0.04 91 1006.6
20260905012003 66 319 3.5 5.2 0.00 0.04 0.04 91 1006.6
20260905011002 66 324 2.6 4.3 0.00 0.04 0.04 92 1006.6
20260905010024 66 334 2.6 5.2 0.00 0.04 0.04 91 1006.6
20260905005003 66 307 2.6 4.3 0.00 0.04 0.04 91 1006.7
20260905004003 66 319 3.5 3.5 0.00 0.04 0.04 91 1006.7
20260905003003 66 284 1.7 2.6 0.00 0.04 0.04 91 1006.7
20260905002002 66 284 2.6 4.3 0.00 0.04 0.04 91 1006.5
20260905000004 66 316 3.5 7.0 0.00 0.04 0.04 91 1006.2
20260904235003 66 309 5.2 9.6 0.00 0.04 0.04 92 1006.2
20260904234003 65 315 6.1 8.7 0.00 0.04 0.04 92 1006.0
20260904233002 65 278 5.2 7.0 0.00 0.04 0.04 91 1006.0
20260904232003 65 260 3.5 7.0 0.00 0.04 0.04 91 1005.8
20260904231023 65 262 4.3 6.1 0.00 0.04 0.04 90 1006.0
20260904230003 66 227 1.7 6.1 0.00 0.04 0.04 90 1006.0
20260904225003 66 250 2.6 3.5 0.00 0.04 0.04 89 1006.0
20260904224003 67 257 3.5 7.8 0.00 0.04 0.04 89 1006.1
20260904223003 67 260 3.5 6.1 0.00 0.04 0.04 88 1006.1
20260904222002 68 228 2.6 4.3 0.00 0.04 0.04 87 1006.0
20260904221024 69 224 2.6 6.1 0.00 0.04 0.04 86 1005.8
20260904220003 70 220 1.7 3.5 0.00 0.04 0.04 88 1005.8
20260904215002 70 184 2.6 3.5 0.00 0.04 0.04 88 1005.9
20260904214003 69 147 2.6 3.5 0.00 0.04 0.04 89 1006.0
20260904213003 69 92 0.0 1.7 0.00 0.04 0.04 90 1006.0
20260904212003 69 88 0.9 3.5 0.00 0.04 0.04 90 1006.1
20260904211024 68 85 1.7 4.3 0.00 0.04 0.04 90 1006.2
20260904210003 68 31 1.7 2.6 0.04 0.04 0.04 90 1006.1
20260904205003 67 18 2.6 10.4 0.00 0.00 0.00 89 1006.5
20260904204002 68 338 6.1 10.4 0.00 0.00 0.00 88 1006.2
20260904203024 68 251 1.7 7.8 0.00 0.00 0.00 88 1005.7
20260904202024 67 261 2.6 9.6 0.00 0.00 0.00 89 1005.9
20260904201003 68 239 2.6 8.7 0.00 0.00 0.00 88 1005.6
20260904200003 68 251 3.5 9.6 0.00 0.00 0.00 88 1005.6
20260904195024 68 249 3.5 8.7 0.00 0.00 0.00 90 1005.9
20260904194002 67 245 2.6 6.1 0.00 0.00 0.00 90 1006.0
20260904193024 67 240 4.3 8.7 0.00 0.00 0.00 91 1006.3
20260904192003 66 261 7.0 10.4 0.00 0.00 0.00 90 1006.2
20260904191002 66 259 7.0 11.3 0.00 0.00 0.00 90 1006.0
20260904190004 66 274 5.2 8.7 0.00 0.00 0.00 89 1006.1
20260904185002 67 238 2.6 7.0 0.00 0.00 0.00 88 1006.2
20260904184003 68 230 3.5 7.0 0.00 0.00 0.00 89 1006.3
20260904183003 68 235 1.7 7.8 0.00 0.00 0.00 90 1006.3
20260904182002 68 233 4.3 7.8 0.00 0.00 0.00 89 1006.4
20260904181003 68 217 3.5 7.8 0.00 0.00 0.00 89 1006.3
20260904180003 68 223 4.3 7.0 0.00 0.00 0.00 90 1006.5
20260904175003 68 232 2.6 3.5 0.00 0.00 0.00 90 1006.7
20260904174003 68 230 3.5 7.0 0.00 0.00 0.00 88 1006.7
20260904173024 69 235 3.5 7.0 0.00 0.00 0.00 89 1006.8
20260904172003 69 226 4.3 8.7 0.00 0.00 0.00 89 1006.8
20260904171002 70 225 5.2 7.8 0.00 0.00 0.00 88 1006.8
20260904170003 70 220 3.5 6.1 0.00 0.00 0.00 90 1007.1
20260904165024 70 216 2.6 4.3 0.00 0.00 0.00 90 1007.0
20260904164023 69 204 3.5 6.1 0.00 0.00 0.00 91 1007.1
20260904163003 68 190 4.3 7.0 0.00 0.00 0.00 91 1007.1
20260904162002 68 195 4.3 5.2 0.00 0.00 0.00 92 1007.3
20260904161024 68 183 3.5 5.2 0.00 0.00 0.00 92 1007.5
20260904160003 68 182 3.5 4.3 0.00 0.00 0.00 92 1007.5
20260904155003 69 141 1.7 4.3 0.00 0.00 0.00 93 1007.4
20260904154003 68 156 2.6 4.3 0.00 0.00 0.00 94 1007.6
20260904153003 68 203 4.3 7.0 0.00 0.00 0.00 94 1007.8
20260904152002 67 152 4.3 7.0 0.00 0.00 0.00 95 1007.8
20260904151024 67 121 6.1 7.0 0.00 0.00 0.00 95 1007.8
20260904150003 67 108 1.7 3.5 0.00 0.00 0.00 96 1007.9
20260904145002 66 291 4.3 7.0 0.00 0.00 0.00 96 1008.0
20260904144024 66 325 4.3 7.8 0.00 0.00 0.00 96 1008.0
20260904143002 65 324 6.1 8.7 0.00 0.00 0.00 96 1008.0
20260904142003 65 281 4.3 7.8 0.00 0.00 0.00 96 1008.1
20260904141024 65 295 4.3 7.0 0.00 0.01 0.00 96 1008.2
20260904140002 65 319 4.3 7.8 0.00 0.01 0.00 96 1008.2
20260904135003 65 322 2.6 7.0 0.00 0.01 0.00 96 1008.3
20260904134003 64 329 3.5 9.6 0.00 0.01 0.00 96 1008.3
20260904133002 64 304 5.2 8.7 0.00 0.01 0.00 96 1008.2
20260904132003 64 311 4.3 8.7 0.00 0.02 0.00 96 1008.3
20260904131003 64 292 3.5 7.0 0.00 0.03 0.00 96 1008.2
20260904130003 64 346 2.6 7.0 0.00 0.03 0.00 96 1008.2
20260904125003 63 301 3.5 7.0 0.00 0.03 0.00 96 1008.2
20260904124002 63 296 3.5 7.0 0.00 0.03 0.00 96 1008.3
20260904123003 63 306 3.5 6.1 0.00 0.03 0.00 96 1008.3
20260904122002 63 292 1.7 6.1 0.00 0.03 0.00 96 1008.3
20260904121003 63 278 3.5 6.1 0.00 0.03 0.00 96 1008.3
20260904120003 63 258 2.6 6.1 0.00 0.03 0.00 96 1008.3
20260904115002 63 255 2.6 6.1 0.00 0.03 0.00 96 1008.3
20260904114003 63 259 3.5 5.2 0.00 0.03 0.00 96 1008.3
20260904113002 62 248 0.9 5.2 0.00 0.04 0.00 96 1008.3
20260904112024 62 235 0.9 3.5 0.00 0.04 0.00 96 1008.3
20260904111004 62 259 1.7 3.5 0.00 0.06 0.00 96 1008.1
20260904110002 62 255 1.7 6.1 0.00 0.06 0.00 96 1008.1
20260904105003 62 262 2.6 7.0 0.00 0.06 0.00 96 1007.9
20260904104003 62 264 3.5 6.1 0.00 0.06 0.00 96 1007.8
20260904103003 62 267 4.3 7.0 0.00 0.06 0.00 96 1007.8
20260904102003 62 270 5.2 7.8 0.00 0.06 0.00 96 1007.8
20260904101003 61 289 1.7 2.6 0.00 0.06 0.00 96 1007.9
20260904100003 61 292 0.9 1.7 0.00 0.06 0.00 96 1008.0
20260904095003 61 292 0.0 1.7 0.00 0.06 0.00 96 1008.0
20260904094002 61 292 0.0 0.0 0.00 0.06 0.00 96 1007.8
20260904093003 61 292 0.0 0.0 0.00 0.06 0.00 96 1007.7
20260904092002 61 292 0.0 0.0 0.00 0.06 0.00 96 1007.6
20260904091004 61 292 0.0 0.0 0.00 0.06 0.00 96 1007.7
20260904090003 61 292 0.0 2.6 0.00 0.06 0.00 96 1007.7
20260904085002 61 291 1.7 2.6 0.00 0.06 0.00 96 1007.7
20260904084003 61 289 1.7 6.1 0.00 0.06 0.00 96 1007.9
20260904083003 61 297 3.5 5.2 0.00 0.06 0.00 96 1007.9
20260904082003 61 286 0.0 0.0 0.00 0.06 0.00 96 1007.9
20260904081004 61 286 0.0 3.5 0.00 0.06 0.00 95 1007.6
20260904080002 61 273 1.7 6.1 0.00 0.06 0.00 95 1007.7
20260904075003 61 293 3.5 4.3 0.00 0.06 0.00 96 1007.8
20260904074003 61 304 2.6 3.5 0.00 0.06 0.00 95 1007.9
20260904073003 61 287 1.7 3.5 0.00 0.06 0.00 95 1008.0
20260904072003 61 268 1.7 3.5 0.00 0.06 0.00 95 1008.2
20260904071003 61 256 1.7 5.2 0.00 0.06 0.00 95 1008.3
20260904070003 61 261 2.6 5.2 0.00 0.06 0.00 96 1008.3
20260904065003 61 227 0.9 3.5 0.00 0.06 0.00 95 1008.4
20260904064002 61 312 0.0 1.7 0.00 0.06 0.00 95 1008.5
20260904063003 61 312 0.9 4.3 0.00 0.06 0.00 95 1008.5
20260904062024 62 312 2.6 4.3 0.00 0.06 0.00 95 1008.5
20260904061003 62 274 3.5 7.0 0.00 0.06 0.00 95 1008.8
20260904060003 62 268 3.5 6.1 0.00 0.06 0.00 95 1009.0
20260904055002 62 259 2.6 7.0 0.00 0.06 0.00 95 1009.2
20260904054003 62 254 2.6 6.1 0.00 0.06 0.00 95 1009.3
20260904053003 62 278 3.5 4.3 0.00 0.06 0.00 95 1009.1
20260904052003 62 268 0.9 5.2 0.00 0.06 0.00 95 1009.1
20260904051003 62 265 2.6 5.2 0.00 0.06 0.00 95 1009.4
20260904050002 63 252 2.6 5.2 0.00 0.06 0.00 95 1009.5
20260904045003 62 268 3.5 5.2 0.00 0.06 0.00 95 1009.7
20260904044024 62 320 2.6 3.5 0.00 0.06 0.00 95 1009.5
20260904043045 63 320 0.0 3.5 0.00 0.06 0.00 95 1009.5
20260904042002 63 320 0.9 3.5 0.00 0.06 0.00 95 1009.5
20260904040004 63 292 0.0 0.0 0.00 0.06 0.06 95 1009.9
20260904035003 62 292 0.0 1.7 0.00 0.06 0.06 95 1010.1
20260904034003 62 291 0.0 1.7 0.00 0.06 0.06 95 1010.0
20260904033003 62 291 0.9 1.7 0.00 0.06 0.06 95 1010.2
20260904032023 62 291 0.9 2.6 0.00 0.06 0.06 95 1010.2
20260904031003 62 352 0.0 2.6 0.00 0.06 0.06 95 1010.0
20260904030002 62 351 0.0 3.5 0.00 0.06 0.06 95 1010.1
20260904025003 62 340 2.6 5.2 0.00 0.06 0.06 95 1010.3
20260904024004 62 311 3.5 7.8 0.00 0.06 0.06 95 1010.2
20260904023003 62 310 2.6 4.3 0.00 0.06 0.06 95 1010.2
20260904022003 62 307 2.6 4.3 0.00 0.06 0.06 95 1010.0
20260904021003 62 293 2.6 4.3 0.00 0.06 0.06 95 1010.3